Regional Weather Roundup
Issued by NWS Memphis, TN

Home | Current Version | Previous Version | Text Only | Print | Product List | Glossary On
Versions: 1 2 3 4 5 6 7 8 9 10 11 12 13 14 15 16 17 18 19 20 21 22 23 24 25 26 27 28 29 30 31 32 33 34 35 36 37 38 39 40 41 42 43 44 45 46 47 48 49 50
000
ASUS44 KMEG 280200
RWRMEG
MEMPHIS CWA HOURLY WEATHER ROUNDUP
NATIONAL WEATHER SERVICE MEMPHIS TN
900 PM CDT MON JUN 27 2016

...WEST TENNESSEE...

CITY           SKY/WX    TMP DP  RH WIND       PRES   REMARKS
MEMPHIS INTL   CLOUDY    77  73  87 N8        30.04R
NWS MEMPHIS      N/A     74 N/A N/A MISG        N/A
JACKSON        CLOUDY    75  73  93 N5        30.06R
LEXINGTON      CLEAR     73  73 100 NE3       30.05R
DYERSBURG      CLOUDY    73  73 100 CALM      30.06F
UNION CITY     CLEAR     73  73 100 CALM      30.06R
PARIS          CLEAR     72  70  94 CALM      30.07S


...EASTERN ARKANSAS...

CITY           SKY/WX    TMP DP  RH WIND       PRES   REMARKS
JONESBORO      CLOUDY    77  72  84 CALM      30.06S
WEST MEMPHIS   CLOUDY    75  73  93 N6        30.03R
BATESVILLE     PTCLDY    73  70  88 NW3       30.08F
WALNUT RIDGE   PTCLDY    77  72  83 CALM      30.06S
BLYTHEVILLE    PTCLDY    77  73  87 NE3       30.06S
SEARCY         CLOUDY    73  72  94 NW5       30.07S
STUTTGART      CLOUDY    75  68  78 CALM      30.04F
PINE BLUFF     CLOUDY    75  73  93 NE3       30.04F
MONTICELLO     CLOUDY    77  73  87 VRB3      30.03R


...NORTH MISSISSIPPI...

CITY           SKY/WX    TMP DP  RH WIND       PRES   REMARKS
TUPELO         LGT RAIN  75  72  90 E3        30.00F
BATESVILLE     CLOUDY    74  72  95 CALM      30.01R
TUNICA         CLOUDY    72  72 100 N5        30.03S
CLARKSDALE     CLEAR     75  75 100 CALM      30.03R
GREENWOOD      CLOUDY    77  69  76 E5        30.01R
COLUMBUS       MOCLDY    76  72  88 SE2       30.02S
STARKVILLE     MOCLDY    75  72  88 SW5       30.03S
GOLDEN TRIANGL MOCLDY    79  70  73 SE3       30.02S


...SOUTHEAST MISSOURI...

CITY           SKY/WX    TMP DP  RH WIND       PRES   REMARKS
KENNETT        PTCLDY    79  77  94 CALM      30.05S
WEST PLAINS    PTCLDY    77  71  82 N3        30.14R
POPLAR BLUFF   PTCLDY    77  70  79 N3        30.06S
CAPE GIRARDEAU CLEAR     77  67  71 CALM      30.06S


...NORTHWEST ALABAMA...

CITY           SKY/WX    TMP DP  RH WIND       PRES   REMARKS
MUSCLE SHOALS  CLOUDY    74  71  91 CALM      30.05R


...MIDDLE TENNESSEE...

CITY           SKY/WX    TMP DP  RH WIND       PRES   REMARKS
NASHVILLE      CLOUDY    75  71  87 CALM      30.05F
CLARKSVILLE    CLOUDY    74  72  93 CALM      30.06R
COLUMBIA       PTCLDY   N/A N/A N/A CALM      30.05S


...WESTERN KENTUCKY...

CITY           SKY/WX    TMP DP  RH WIND       PRES   REMARKS
PADUCAH        CLOUDY    78  70  76 CALM      30.05S


...CENTRAL ARKANSAS...

CITY           SKY/WX    TMP DP  RH WIND       PRES   REMARKS
LITTLE ROCK    CLOUDY    75  72  90 S6        30.06F


SKY/WX REPORTED AS FAIR MEANS FEW OR NO CLOUDS BELOW
12 THOUSAND FEET.




USA.gov is the U.S. government's official web portal to all federal, state and local government web resources and services.